| time (UTC) | temp F | wind direction | speed MPH | gust MPH | rain 1hr in | rain 24hr in | rain mn in | humidity % | barometer mb |
| 20260831203013 | 102 | 129 | 4.0 | 9.0 | 0.00 | 0.00 | 0.00 | 31 | 1017.0 |
| 20260831201519 | 101 | 92 | 2.0 | 12.0 | 0.00 | 0.00 | 0.00 | 33 | 1017.3 |
| 20260831200012 | 101 | 96 | 6.0 | 13.0 | 0.00 | 0.00 | 0.00 | 32 | 1017.5 |
| 20260831194515 | 103 | 133 | 6.0 | 12.0 | 0.00 | 0.00 | 0.00 | 34 | 1017.8 |
| 20260831193017 | 101 | 162 | 3.0 | 9.0 | 0.00 | 0.00 | 0.00 | 34 | 1017.8 |
| 20260831191505 | 98 | 139 | 7.0 | 10.0 | 0.00 | 0.00 | 0.00 | 38 | 1018.1 |
| 20260831190007 | 101 | 117 | 6.0 | 12.0 | 0.00 | 0.00 | 0.00 | 34 | 1018.2 |
| 20260831184506 | 100 | 170 | 3.0 | 14.0 | 0.00 | 0.00 | 0.00 | 36 | 1018.2 |
| 20260831183017 | 98 | 139 | 0.0 | 10.0 | 0.00 | 0.00 | 0.00 | 39 | 1018.4 |
| 20260831181520 | 95 | 44 | 0.0 | 5.0 | 0.00 | 0.00 | 0.00 | 44 | 1018.6 |
| 20260831180003 | 95 | 96 | 2.0 | 5.0 | 0.00 | 0.00 | 0.00 | 45 | 1018.8 |
| 20260831174506 | 94 | 127 | 1.0 | 5.0 | 0.00 | 0.00 | 0.00 | 44 | 1018.9 |
| 20260831173018 | 97 | 285 | 2.0 | 11.0 | 0.00 | 0.00 | 0.00 | 41 | 1019.3 |
| 20260831171516 | 97 | 135 | 6.0 | 8.0 | 0.00 | 0.00 | 0.00 | 42 | 1019.7 |
| 20260831170024 | 97 | 191 | 4.0 | 8.0 | 0.00 | 0.00 | 0.00 | 43 | 1019.7 |
| 20260831164507 | 94 | 217 | 2.0 | 9.0 | 0.00 | 0.00 | 0.00 | 44 | 1019.8 |
| 20260831163010 | 93 | 223 | 4.0 | 9.0 | 0.00 | 0.00 | 0.00 | 46 | 1019.9 |
| 20260831161518 | 93 | 237 | 3.0 | 12.0 | 0.00 | 0.00 | 0.00 | 46 | 1020.1 |
| 20260831160011 | 92 | 217 | 3.0 | 7.0 | 0.00 | 0.00 | 0.00 | 48 | 1020.0 |
| 20260831154547 | 92 | 188 | 3.0 | 10.0 | 0.00 | 0.00 | 0.00 | 47 | 1020.0 |
| 20260831153009 | 91 | 181 | 5.0 | 9.0 | 0.00 | 0.00 | 0.00 | 50 | 1019.9 |
| 20260831151514 | 90 | 181 | 5.0 | 7.0 | 0.00 | 0.00 | 0.00 | 51 | 1019.9 |
| 20260831150033 | 89 | 171 | 3.0 | 6.0 | 0.00 | 0.00 | 0.00 | 55 | 1019.8 |
| 20260831144512 | 88 | 243 | 7.0 | 9.0 | 0.00 | 0.00 | 0.00 | 55 | 1019.6 |
| 20260831143023 | 86 | 217 | 3.0 | 7.0 | 0.00 | 0.00 | 0.00 | 61 | 1019.5 |
| 20260831141525 | 85 | 243 | 4.0 | 7.0 | 0.00 | 0.00 | 0.00 | 64 | 1019.4 |
| 20260831140016 | 83 | 222 | 3.0 | 6.0 | 0.00 | 0.00 | 0.00 | 66 | 1019.5 |
| 20260831134524 | 82 | 191 | 3.0 | 5.0 | 0.00 | 0.00 | 0.00 | 67 | 1019.3 |
| 20260831133022 | 81 | 180 | 3.0 | 4.0 | 0.00 | 0.00 | 0.00 | 67 | 1019.2 |
| 20260831131523 | 80 | 165 | 2.0 | 3.0 | 0.00 | 0.00 | 0.00 | 68 | 1019.0 |
| 20260831130016 | 78 | 175 | 2.0 | 3.0 | 0.00 | 0.00 | 0.00 | 69 | 1018.8 |
| 20260831124535 | 77 | 174 | 1.0 | 2.0 | 0.00 | 0.00 | 0.00 | 71 | 1018.6 |
| 20260831123026 | 76 | 174 | 2.0 | 3.0 | 0.00 | 0.00 | 0.00 | 71 | 1018.5 |
| 20260831121530 | 76 | 173 | 2.0 | 3.0 | 0.00 | 0.00 | 0.00 | 71 | 1018.3 |
| 20260831120024 | 77 | 172 | 1.0 | 2.0 | 0.00 | 0.00 | 0.00 | 71 | 1018.1 |
| 20260831114541 | 77 | 181 | 3.0 | 4.0 | 0.00 | 0.00 | 0.00 | 70 | 1017.9 |
| 20260831113015 | 77 | 199 | 2.0 | 3.0 | 0.00 | 0.00 | 0.00 | 70 | 1017.9 |
| 20260831111524 | 77 | 210 | 4.0 | 5.0 | 0.00 | 0.00 | 0.00 | 68 | 1017.7 |
| 20260831110026 | 78 | 236 | 2.0 | 6.0 | 0.00 | 0.00 | 0.00 | 67 | 1017.5 |
| 20260831104522 | 79 | 212 | 4.0 | 8.0 | 0.00 | 0.00 | 0.00 | 66 | 1017.7 |
| 20260831103004 | 78 | 183 | 4.0 | 5.0 | 0.00 | 0.00 | 0.00 | 66 | 1017.8 |
| 20260831101504 | 79 | 176 | 3.0 | 5.0 | 0.00 | 0.00 | 0.00 | 64 | 1017.7 |
| 20260831100006 | 79 | 160 | 4.0 | 5.0 | 0.00 | 0.00 | 0.00 | 64 | 1017.6 |
| 20260831094508 | 79 | 185 | 4.0 | 6.0 | 0.00 | 0.00 | 0.00 | 63 | 1017.6 |
| 20260831093016 | 80 | 176 | 4.0 | 7.0 | 0.00 | 0.00 | 0.00 | 62 | 1017.4 |
| 20260831091504 | 81 | 176 | 3.0 | 6.0 | 0.00 | 0.00 | 0.00 | 60 | 1017.3 |
| 20260831090012 | 81 | 179 | 3.0 | 6.0 | 0.00 | 0.00 | 0.00 | 59 | 1017.3 |
| 20260831084510 | 81 | 180 | 4.0 | 8.0 | 0.00 | 0.00 | 0.00 | 58 | 1017.2 |
| 20260831083009 | 81 | 174 | 6.0 | 9.0 | 0.00 | 0.00 | 0.00 | 58 | 1017.1 |
| 20260831081514 | 81 | 162 | 4.0 | 7.0 | 0.00 | 0.00 | 0.00 | 58 | 1017.1 |
| 20260831080026 | 82 | 159 | 5.0 | 9.0 | 0.00 | 0.00 | 0.00 | 58 | 1017.0 |
| 20260831074506 | 82 | 169 | 5.0 | 8.0 | 0.00 | 0.00 | 0.00 | 58 | 1016.8 |
| 20260831073031 | 82 | 165 | 5.0 | 9.0 | 0.00 | 0.00 | 0.00 | 57 | 1016.9 |
| 20260831071519 | 82 | 162 | 4.0 | 8.0 | 0.00 | 0.00 | 0.00 | 57 | 1017.0 |
| 20260831070026 | 83 | 168 | 5.0 | 8.0 | 0.00 | 0.00 | 0.00 | 56 | 1016.8 |
| 20260831064524 | 83 | 144 | 5.0 | 12.0 | 0.00 | 0.00 | 0.00 | 55 | 1017.0 |
| 20260831063010 | 84 | 167 | 6.0 | 10.0 | 0.00 | 0.00 | 0.00 | 54 | 1017.1 |
| 20260831061510 | 84 | 143 | 7.0 | 13.0 | 0.00 | 0.00 | 0.00 | 54 | 1017.1 |
| 20260831060015 | 84 | 152 | 7.0 | 11.0 | 0.00 | 0.00 | 0.00 | 53 | 1017.1 |
| 20260831054515 | 85 | 148 | 6.0 | 10.0 | 0.00 | 0.00 | 0.00 | 52 | 1016.9 |
| 20260831053030 | 85 | 150 | 5.0 | 9.0 | 0.00 | 0.00 | 0.00 | 51 | 1016.8 |
| 20260831051507 | 86 | 148 | 7.0 | 10.0 | 0.00 | 0.00 | 0.00 | 50 | 1016.7 |
| 20260831050011 | 86 | 119 | 6.0 | 11.0 | 0.00 | 0.00 | 0.00 | 49 | 1016.6 |
| 20260831044520 | 86 | 143 | 6.0 | 9.0 | 0.00 | 0.00 | 0.00 | 48 | 1016.6 |
| 20260831043014 | 87 | 126 | 4.0 | 10.0 | 0.00 | 0.00 | 0.00 | 47 | 1016.5 |
| 20260831041525 | 87 | 129 | 4.0 | 10.0 | 0.00 | 0.00 | 0.00 | 46 | 1016.4 |
| 20260831040011 | 87 | 130 | 5.0 | 8.0 | 0.00 | 0.00 | 0.00 | 46 | 1016.4 |
| 20260831034514 | 88 | 132 | 5.0 | 10.0 | 0.00 | 0.00 | 0.00 | 45 | 1016.3 |
| 20260831033020 | 88 | 124 | 7.0 | 12.0 | 0.00 | 0.00 | 0.00 | 44 | 1016.2 |
| 20260831031518 | 87 | 110 | 4.0 | 8.0 | 0.00 | 0.00 | 0.00 | 43 | 1016.1 |
| 20260831030026 | 86 | 109 | 4.0 | 7.0 | 0.00 | 0.00 | 0.00 | 44 | 1015.9 |
| 20260831024513 | 85 | 133 | 2.0 | 3.0 | 0.00 | 0.00 | 0.00 | 44 | 1015.8 |
| 20260831023016 | 86 | 133 | 1.0 | 2.0 | 0.00 | 0.00 | 0.00 | 44 | 1015.6 |
| 20260831021531 | 87 | 133 | 2.0 | 4.0 | 0.00 | 0.00 | 0.00 | 42 | 1015.4 |
| 20260831020010 | 87 | 133 | 2.0 | 4.0 | 0.00 | 0.00 | 0.00 | 41 | 1015.2 |
| 20260831014524 | 89 | 153 | 3.0 | 4.0 | 0.00 | 0.00 | 0.00 | 39 | 1015.0 |
| 20260831013013 | 90 | 149 | 2.0 | 4.0 | 0.00 | 0.00 | 0.00 | 39 | 1014.9 |
| 20260831011518 | 90 | 161 | 3.0 | 4.0 | 0.00 | 0.00 | 0.00 | 38 | 1014.8 |
| 20260831010040 | 91 | 184 | 2.0 | 3.0 | 0.00 | 0.00 | 0.00 | 37 | 1014.6 |
| 20260831004534 | 93 | 185 | 2.0 | 2.0 | 0.00 | 0.00 | 0.00 | 37 | 1014.6 |
| 20260831003020 | 94 | 185 | 1.0 | 4.0 | 0.00 | 0.00 | 0.00 | 34 | 1014.6 |
| 20260831001540 | 96 | 182 | 3.0 | 4.0 | 0.00 | 0.00 | 0.00 | 33 | 1014.5 |
| 20260831000017 | 98 | 212 | 2.0 | 7.0 | 0.00 | 0.00 | 0.00 | 32 | 1014.6 |
| 20260830234541 | 99 | 205 | 4.0 | 7.0 | 0.00 | 0.00 | 0.00 | 30 | 1014.7 |
| 20260830233034 | 100 | 255 | 3.0 | 7.0 | 0.00 | 0.00 | 0.00 | 29 | 1014.7 |
| 20260830231519 | 100 | 298 | 1.0 | 3.0 | 0.00 | 0.00 | 0.00 | 30 | 1014.7 |
| 20260830230030 | 98 | 193 | 0.0 | 3.0 | 0.00 | 0.00 | 0.00 | 32 | 1014.8 |
| 20260830224533 | 99 | 193 | 1.0 | 5.0 | 0.00 | 0.00 | 0.00 | 31 | 1014.9 |
| 20260830223024 | 103 | 183 | 5.0 | 12.0 | 0.00 | 0.00 | 0.00 | 28 | 1014.9 |
| 20260830221531 | 102 | 143 | 4.0 | 9.0 | 0.00 | 0.00 | 0.00 | 29 | 1014.9 |
| 20260830220026 | 104 | 154 | 2.0 | 9.0 | 0.00 | 0.00 | 0.00 | 28 | 1015.0 |
| 20260830214519 | 103 | 122 | 7.0 | 12.0 | 0.00 | 0.00 | 0.00 | 28 | 1015.1 |
| 20260830213031 | 103 | 160 | 3.0 | 13.0 | 0.00 | 0.00 | 0.00 | 28 | 1015.2 |
| 20260830211523 | 104 | 169 | 6.0 | 11.0 | 0.00 | 0.00 | 0.00 | 27 | 1015.5 |
| 20260830210033 | 103 | 276 | 6.0 | 13.0 | 0.00 | 0.00 | 0.00 | 28 | 1015.5 |
| 20260830204533 | 104 | 252 | 10.0 | 16.0 | 0.00 | 0.00 | 0.00 | 28 | 1015.8 |